User: anonymous   Login
Location: Unspecified
(0.0000°N, 0.0000°E)
Time: 04:42:21
(UTC+01:00)
Language:

Cosmos 2251 - Orbit

View from above orbital plane
View from above orbital plane
View from above satellite
View from above satellite

Ground track
Ground track

The orbit data is extracted from the following two-line orbital elements,

1 22675U 93036A   18050.57512059 +.00000021 +00000-0 +17206-4 0  9994
2 22675 074.0396 124.6134 0025140 186.3739 173.7096 14.32515181289163
Epoch (UTC): 19 February 2018 13:48:10
Eccentricity: 0.0025140
inclination: 74.0396°
perigee height: 765 km
apogee height: 801 km
right ascension of ascending node: 124.6134°
argument of perigee: 186.3739°
revolutions per day: 14.32515181
mean anomaly at epoch: 173.7096°
orbit number at epoch: 28916

The dashed part of the orbit path shows where the satellite is in the earth's shadow,  

DLR